Location: The Saddle
(36.8333°N, 80.3417°W)
Time: 05:28:49
(UTC-05:00)

Courier 1B Rocket - Visible Passes

Search period start: 19 January 2022 00:00
Search period end: 29 January 2022 00:00
Orbit: 920 x 1202 km, 28.2° (Epoch: 18 January)

Date Brightness Start Highest point End Pass type
(mag) Time Alt. Az. Time Alt. Az. Time Alt. Az.
19 Jan 6.7 04:12:11 24° SE 04:12:11 24° SE 04:15:19 10° ESE visible
19 Jan 5.9 05:58:33 19° WSW 06:02:41 39° S 06:08:25 10° ESE visible
20 Jan 5.8 05:01:21 38° S 05:01:48 38° S 05:07:36 10° ESE visible
20 Jan 6.1 06:48:57 10° WSW 06:54:39 34° S 07:00:11 10° SE visible
21 Jan 6.9 04:04:06 23° ESE 04:04:06 23° ESE 04:06:43 10° ESE visible
21 Jan 5.9 05:50:28 23° WSW 05:53:48 38° S 05:59:33 10° ESE visible
22 Jan 5.8 04:53:12 40° S 04:53:12 40° S 04:58:50 10° ESE visible
22 Jan 6.3 06:40:15 10° WSW 06:45:44 29° SSW 06:51:02 10° SE visible
23 Jan 7.0 03:55:56 20° ESE 03:55:56 20° ESE 03:58:02 10° ESE visible
23 Jan 6.0 05:42:18 26° SW 05:44:54 34° S 05:50:34 10° SE visible
24 Jan 6.0 04:45:01 37° SSE 04:45:01 37° SSE 04:49:58 10° ESE visible
24 Jan 6.5 06:31:41 10° WSW 06:36:46 24° SSW 06:41:40 10° SSE visible
25 Jan 7.2 03:47:45 17° ESE 03:47:45 17° ESE 03:49:15 10° ESE visible
25 Jan 6.1 05:34:06 26° SW 05:35:57 30° SSW 05:41:26 10° SE visible
26 Jan 6.3 04:36:51 31° SSE 04:36:51 31° SSE 04:40:59 10° SE visible
26 Jan 6.7 06:23:24 10° WSW 06:27:44 18° SSW 06:31:55 10° SSE visible
27 Jan 7.5 03:39:36 13° ESE 03:39:36 13° ESE 03:40:22 10° ESE visible
27 Jan 6.3 05:25:59 24° SW 05:26:57 24° SSW 05:32:04 10° SSE visible
28 Jan 6.7 04:28:46 23° SSE 04:28:46 23° SSE 04:31:50 10° SE visible
28 Jan 7.0 06:15:46 10° SW 06:18:38 13° SSW 06:21:26 10° S visible
